Retour au catalogue

NOAA 16 DEB

ActifPO
NORAD 41363·DEBRIS·🇺🇸 United States

Lancé Sep 21, 2000 depuis Vandenberg Space Force Base

Loading…

Prochains Passages (prochaines 24 heures)

TLE

FraisSource: Space-Track

Époque: Sep 14, 2026, 10:44 UTC

1 41363U 00055JG  26257.44766137  .00026023  00000-0  23367-2 0  9993
2 41363  98.8949 122.9415 0011943  75.6423 284.6119 14.95641512554424

Suivez NOAA 16 DEB en temps réel avec AllMySat

Download on the App Store